Regional Weather Roundup
Issued by NWS

Home | Current Version | Previous Version | Graphics & Text | Print | Product List | Glossary On
Versions: 1 2 3 4 5 6 7 8 9 10 11 12 13 14 15 16 17 18 19 20 21 22 23 24 25 26 27 28 29 30 31 32 33 34 35 36 37 38 39 40 41 42 43 44 45 46 47 48 49 50
000
ASUS45 KPSR 290000
RWRAZ

PRELIMINARY ARIZONA REGIONAL HOURLY WEATHER ROUNDUP
NATIONAL WEATHER SERVICE PHOENIX AZ
500 PM MST THU AUG 28 2014

NOTE: FAIR INDICATES FEW OR NO CLOUDS BELOW 12,000 FEET WITH NO
SIGNIFICANT WEATHER AND/OR OBSTRUCTIONS TO VISIBILITY.

AZZ001>003-036-290100-
NORTHWEST ARIZONA

CITY           SKY/WX    TMP DP  RH WIND       PRES   REMARKS
KINGMAN        SUNNY     94  31  10 CALM      30.01F
6HR MIN TEMP:  89; 6HR MAX TEMP:  95;

$$

AZZ004>008-015-016-018-290100-
NORTH CENTRAL ARIZONA

CITY           SKY/WX    TMP DP  RH WIND       PRES   REMARKS
GRAND CANYON   SUNNY     77  37  23 N10       30.26F
WILLIAMS       SUNNY     75  36  23 NW10      30.33S
PRESCOTT       SUNNY     84  42  22 N6        30.13F
6HR MIN TEMP:  77; 6HR MAX TEMP:  85;

FLAGSTAFF      SUNNY     75  40  28 SE7       30.28F
6HR MIN TEMP:  69; 6HR MAX TEMP:  76;

PAYSON         SUNNY     84  45  24 W9        30.14F
PAGE           SUNNY     88  38  17 NE6       30.08F
6HR MIN TEMP:  78; 6HR MAX TEMP:  89;

$$

AZZ009>014-017-290100-
NORTHEAST ARIZONA

CITY           SKY/WX    TMP DP  RH WIND       PRES   REMARKS
WINSLOW        NOT AVBL
SAINT JOHNS    SUNNY     81  41  24 NW12      30.15F
6HR MIN TEMP:  74; 6HR MAX TEMP:  82;

$$

AZZ023-290100-
GREATER PHOENIX AREA

CITY           SKY/WX    TMP DP  RH WIND       PRES   REMARKS
PHOENIX        MOSUNNY  105  41  11 W9        29.78F HX 100
6HR MIN TEMP:  97; 6HR MAX TEMP: 106;

GLENDALE       SUNNY    106  43  11 W10       29.80F HX 101
LUKE AFB       NOT AVBL
6HR MIN TEMP:  97; 6HR MAX TEMP: 105;

DEER VALLEY    SUNNY    103  38  10 W8        29.81F
6HR MIN TEMP:  94; 6HR MAX TEMP: 106;

SCOTTSDALE     SUNNY    104  40  11 VRB6      29.82F
6HR MIN TEMP:  93; 6HR MAX TEMP: 104;

MESA-FALCON    MOSUNNY  104  46  14 SW10      29.80F HX 100
CHANDLER       MOSUNNY  102  46  15 VRB6      29.80F
$$

AZZ027-028-290100-
SOUTHWEST MARICOPA COUNTY AND PINAL COUNTY

CITY           SKY/WX    TMP DP  RH WIND       PRES   REMARKS
CASA GRANDE    SUNNY    100  45  15 NW3       29.84F
6HR MIN TEMP:  97; 6HR MAX TEMP: 102;

GILA BEND      CLEAR    104  39  11 VRB2      29.80F
$$

AZZ503-504-507>509-290100-
SOUTHEAST ARIZONA

CITY           SKY/WX    TMP DP  RH WIND       PRES   REMARKS
TUCSON         SUNNY     97  47  18 NW7       29.92F
6HR MIN TEMP:  92; 6HR MAX TEMP:  99;

RYAN FIELD       N/A     97  45  16 NW8       29.91F
NOGALES        SUNNY     90  48  23 W9        30.01F
6HR MIN TEMP:  87; 6HR MAX TEMP:  91;

SIERRA VISTA   MOSUNNY   84  46  26 N3        30.09F
SAFFORD        SUNNY     94  42  16 W12       29.92F
6HR MIN TEMP:  88; 6HR MAX TEMP:  96;

$$

AZZ020-021-025-026-031-290100-
SOUTHWEST ARIZONA

CITY           SKY/WX    TMP DP  RH WIND       PRES   REMARKS
YUMA           NOT AVBL
$$

CAZ031-033-041-043-047-048-061-290100-
SOUTHERN CALIFORNIA

CITY           SKY/WX    TMP DP  RH WIND       PRES   REMARKS
DOWNTOWN L.A.  SUNNY     86  44  23 MISG      29.87F
6HR MIN TEMP:  82; 6HR MAX TEMP:  91;

L.A. AIRPORT   MOSUNNY   82  47  29 W20G29    29.88F
6HR MIN TEMP:  78; 6HR MAX TEMP:  84;

SAN DIEGO      SUNNY     82  61  48 NW10      29.92S
6HR MIN TEMP:  81; 6HR MAX TEMP:  85;

BURBANK        SUNNY     97  41  14 W16       29.89F
6HR MIN TEMP:  87; 6HR MAX TEMP:  99;

ONTARIO        SUNNY     95  47  19 W17       29.89F
6HR MIN TEMP:  88; 6HR MAX TEMP: 100;

RIVERSIDE      SUNNY     95  50  21 W17G24    29.88F
6HR MIN TEMP:  89; 6HR MAX TEMP:  99;

PALM SPRINGS   SUNNY    112  41   9 NW12G21   29.77F HX 106
6HR MIN TEMP: 102; 6HR MAX TEMP: 112;

EL CENTRO NAS  SUNNY    110  31   6 N8        29.72F HX 102
6HR MIN TEMP: 103; 6HR MAX TEMP: 111;

IMPERIAL       SUNNY    110  38   8 N9        29.72F HX 103
6HR MIN TEMP: 101; 6HR MAX TEMP: 110;

BLYTHE         SUNNY    107  36   8 E7        29.76F HX 100
6HR MIN TEMP: 100; 6HR MAX TEMP: 109;

$$

NVZ020-UTZ003-290100-
SOUTHERN NEVADA-UTAH

CITY           SKY/WX    TMP DP  RH WIND       PRES   REMARKS
LAS VEGAS      NOT AVBL
SALT LAKE CITY MOSUNNY   84  37  18 NW7       30.10F
6HR MIN TEMP:  76; 6HR MAX TEMP:  85;

$$

NMZ009-TXZ055-290100-
NEW MEXICO-WEST TEXAS

CITY           SKY/WX    TMP DP  RH WIND       PRES   REMARKS
ALBUQUERQUE    MOSUNNY   82  37  20 NW17      30.10F
6HR MIN TEMP:  75; 6HR MAX TEMP:  84;

EL PASO        MOSUNNY   91  48  22 NE3       29.97F
6HR MIN TEMP:  84; 6HR MAX TEMP:  94;

$$


........................KEY........................
SKY/WX - SKY CONDITION/WEATHER
TMP    - TEMPERATURE IN FAHRENHEIT
DP     - DEW POINT IN FAHRENHEIT
RH     - RELATIVE HUMIDITY IN PERCENT
WIND   - DIRECTION AND SPEED IN MILES PER HOUR (MPH)
VRB    - VARIABLE WIND DIRECTION
PRES   - MEAN SEA LEVEL PRESSURE IN INCHES OF MERCURY
         F - FALLING PRESSURE   R - RISING PRESSURE
         S - STEADY PRESSURE
VSB    - VISIBILITY IN MILES
HX     - HEAT INDEX IN FAHRENHEIT
WCI    - WIND CHILL INDEX IN FAHRENHEIT
TC     - TEMPERATURE IN CELSIUS WHICH IS ALSO KNOWN AS
         TEMPERATURE IN CENTIGRADE
AFB    - AIR FORCE BASE
         LUKE AFB IS LUKE AIR FORCE BASE
         DAVIS-MONTHAN IS DAVIS-MONTHAN AIR FORCE BASE
NAS    - NAVAL AIR STATION
         EL CENTRO NAS IS EL CENTRO NAVAL AIR STATION
N/A    - NOT AVAILABLE


USA.gov is the U.S. government's official web portal to all federal, state and local government web resources and services.